| time (UTC) | temp F | wind direction | speed MPH | gust MPH | rain 1hr in | rain 24hr in | rain mn in | humidity % | barometer mb |
| 20260502163056 | 52 | 264 | 2.0 | 9.0 | 0.00 | 0.00 | 0.00 | 57 | 1014.5 |
| 20260502161554 | 54 | 254 | 2.0 | 12.0 | 0.00 | 0.00 | 0.00 | 53 | 1014.5 |
| 20260502151609 | 53 | 90 | 1.0 | 6.0 | 0.00 | 0.00 | 0.00 | 60 | 1014.6 |
| 20260502123057 | 42 | 63 | 1.0 | 4.0 | 0.00 | 0.00 | 0.00 | 90 | 1014.7 |
| 20260502121554 | 40 | 80 | 0.0 | 2.0 | 0.00 | 0.00 | 0.00 | 96 | 1014.8 |
| 20260502114609 | 38 | 0 | 0.0 | 0.0 | 0.00 | 0.00 | 0.00 | 97 | 1014.5 |
| 20260502113057 | 37 | 0 | 0.0 | 0.0 | 0.00 | 0.00 | 0.00 | 97 | 1014.3 |
| 20260502111557 | 37 | 0 | 0.0 | 2.0 | 0.00 | 0.00 | 0.00 | 97 | 1014.3 |
| 20260502110053 | 36 | 0 | 0.0 | 0.0 | 0.00 | 0.00 | 0.00 | 97 | 1014.2 |
| 20260502104554 | 36 | 0 | 0.0 | 0.0 | 0.00 | 0.00 | 0.00 | 96 | 1014.1 |
| 20260502103054 | 36 | 0 | 0.0 | 0.0 | 0.00 | 0.00 | 0.00 | 96 | 1013.9 |
| 20260502101621 | 36 | 0 | 0.0 | 2.0 | 0.00 | 0.00 | 0.00 | 96 | 1013.8 |
| 20260502090112 | 36 | 0 | 0.0 | 0.0 | 0.00 | 0.00 | 0.00 | 95 | 1013.9 |
| 20260502080110 | 37 | 0 | 0.0 | 0.0 | 0.00 | 0.00 | 0.00 | 95 | 1014.2 |
| 20260502070132 | 37 | 0 | 0.0 | 0.0 | 0.00 | 0.00 | 0.00 | 94 | 1013.7 |
| 20260502064558 | 37 | 0 | 0.0 | 0.0 | 0.00 | 0.00 | 0.00 | 94 | 1013.9 |
| 20260502063057 | 38 | 0 | 0.0 | 0.0 | 0.00 | 0.00 | 0.00 | 94 | 1014.0 |
| 20260502061602 | 38 | 0 | 0.0 | 2.0 | 0.00 | 0.00 | 0.00 | 93 | 1014.3 |
| 20260502060100 | 38 | 0 | 0.0 | 0.0 | 0.00 | 0.00 | 0.00 | 92 | 1014.4 |
| 20260502054557 | 39 | 0 | 1.0 | 2.0 | 0.00 | 0.00 | 0.00 | 92 | 1014.3 |
| 20260502053051 | 39 | 0 | 0.0 | 2.0 | 0.00 | 0.00 | 0.00 | 92 | 1014.5 |
| 20260502051617 | 40 | 80 | 1.0 | 2.0 | 0.00 | 0.00 | 0.00 | 91 | 1014.5 |
| 20260502050053 | 40 | 112 | 1.0 | 2.0 | 0.00 | 0.00 | 0.00 | 90 | 1014.5 |
| 20260502044552 | 40 | 112 | 1.0 | 2.0 | 0.00 | 0.00 | 0.00 | 89 | 1014.8 |
| 20260502043054 | 41 | 0 | 0.0 | 2.0 | 0.00 | 0.00 | 0.00 | 88 | 1014.9 |
| 20260502041553 | 42 | 0 | 0.0 | 0.0 | 0.00 | 0.00 | 0.00 | 86 | 1014.9 |
| 20260502040100 | 42 | 0 | 0.0 | 0.0 | 0.00 | 0.00 | 0.00 | 85 | 1014.9 |
| 20260502034550 | 43 | 0 | 0.0 | 1.0 | 0.00 | 0.00 | 0.00 | 83 | 1014.8 |
| 20260502033104 | 44 | 0 | 0.0 | 1.0 | 0.00 | 0.00 | 0.00 | 83 | 1014.8 |
| 20260502031556 | 44 | 0 | 0.0 | 0.0 | 0.00 | 0.00 | 0.00 | 82 | 1014.9 |
| 20260502030105 | 45 | 0 | 0.0 | 0.0 | 0.00 | 0.00 | 0.00 | 80 | 1014.7 |
| 20260502024555 | 45 | 112 | 0.0 | 2.0 | 0.00 | 0.00 | 0.00 | 79 | 1014.8 |
| 20260502023116 | 46 | 0 | 0.0 | 1.0 | 0.00 | 0.00 | 0.00 | 77 | 1014.9 |
| 20260502021552 | 47 | 0 | 0.0 | 2.0 | 0.00 | 0.00 | 0.00 | 76 | 1014.7 |
| 20260502020106 | 47 | 0 | 0.0 | 2.0 | 0.00 | 0.00 | 0.00 | 75 | 1014.9 |
| 20260502014555 | 48 | 0 | 0.0 | 2.0 | 0.00 | 0.00 | 0.00 | 74 | 1014.4 |
| 20260502013103 | 48 | 0 | 0.0 | 3.0 | 0.00 | 0.00 | 0.00 | 73 | 1013.8 |
| 20260502011604 | 49 | 0 | 0.0 | 3.0 | 0.00 | 0.00 | 0.00 | 71 | 1013.4 |
| 20260502010059 | 50 | 79 | 0.0 | 6.0 | 0.00 | 0.00 | 0.00 | 69 | 1013.2 |
| 20260502004611 | 50 | 96 | 1.0 | 4.0 | 0.00 | 0.00 | 0.00 | 70 | 1012.8 |
| 20260502003058 | 51 | 175 | 0.0 | 3.0 | 0.00 | 0.00 | 0.00 | 67 | 1012.6 |
| 20260502001608 | 52 | 90 | 0.0 | 2.0 | 0.00 | 0.00 | 0.00 | 69 | 1012.4 |
| 20260501234606 | 54 | 0 | 0.0 | 6.0 | 0.00 | 0.00 | 0.00 | 67 | 1012.1 |
| 20260501233059 | 54 | 90 | 1.0 | 7.0 | 0.00 | 0.00 | 0.00 | 63 | 1011.8 |
| 20260501231556 | 55 | 248 | 1.0 | 9.0 | 0.00 | 0.00 | 0.00 | 61 | 1011.6 |
| 20260501230052 | 56 | 0 | 1.0 | 8.0 | 0.00 | 0.00 | 0.00 | 62 | 1011.4 |
| 20260501224556 | 56 | 0 | 1.0 | 8.0 | 0.00 | 0.00 | 0.00 | 60 | 1011.3 |
| 20260501223058 | 57 | 15 | 2.0 | 11.0 | 0.00 | 0.00 | 0.00 | 57 | 1011.2 |
| 20260501221558 | 57 | 298 | 4.0 | 11.0 | 0.00 | 0.00 | 0.00 | 58 | 1011.3 |
| 20260501220138 | 58 | 275 | 5.0 | 14.0 | 0.00 | 0.00 | 0.00 | 55 | 1011.2 |
| 20260501214600 | 59 | 350 | 5.0 | 17.0 | 0.00 | 0.00 | 0.00 | 55 | 1011.0 |
| 20260501213102 | 58 | 274 | 1.0 | 15.0 | 0.00 | 0.00 | 0.00 | 64 | 1011.0 |
| 20260501211555 | 58 | 284 | 2.0 | 6.0 | 0.00 | 0.00 | 0.00 | 63 | 1011.1 |
| 20260501210118 | 58 | 161 | 1.0 | 8.0 | 0.00 | 0.00 | 0.00 | 64 | 1010.9 |
| 20260501204559 | 57 | 252 | 2.0 | 6.0 | 0.00 | 0.00 | 0.00 | 65 | 1011.1 |
| 20260501203054 | 54 | 279 | 2.0 | 6.0 | 0.00 | 0.00 | 0.00 | 69 | 1011.4 |
| 20260501201559 | 54 | 0 | 1.0 | 7.0 | 0.00 | 0.00 | 0.00 | 68 | 1011.5 |
| 20260501200053 | 54 | 260 | 3.0 | 9.0 | 0.00 | 0.00 | 0.00 | 67 | 1011.6 |
| 20260501194552 | 54 | 0 | 5.0 | 14.0 | 0.00 | 0.00 | 0.00 | 69 | 1011.5 |
| 20260501193052 | 55 | 205 | 6.0 | 16.0 | 0.00 | 0.00 | 0.00 | 69 | 1011.5 |
| 20260501191557 | 57 | 111 | 4.0 | 17.0 | 0.00 | 0.00 | 0.00 | 68 | 1011.5 |
| 20260501184553 | 60 | 284 | 5.0 | 18.0 | 0.00 | 0.00 | 0.00 | 60 | 1011.1 |
| 20260501183103 | 61 | 355 | 4.0 | 11.0 | 0.00 | 0.00 | 0.00 | 57 | 1011.1 |
| 20260501181607 | 59 | 261 | 4.0 | 13.0 | 0.00 | 0.00 | 0.00 | 58 | 1011.2 |
| 20260501180058 | 58 | 288 | 5.0 | 13.0 | 0.00 | 0.00 | 0.00 | 57 | 1011.0 |
| 20260501174551 | 60 | 332 | 3.0 | 16.0 | 0.00 | 0.00 | 0.00 | 56 | 1011.0 |